Weather Roundup
Issued by NWS Chicago, IL

Home | Current Version | Previous Version | Graphics & Text | Print | Product List | Glossary On
Versions: 1 2 3 4 5 6 7 8 9 10 11 12 13 14 15 16 17 18 19 20 21 22 23 24 25 26 27 28 29 30 31 32 33 34 35 36 37 38 39 40 41 42 43 44 45 46 47 48 49 50
000
NZUS59 KLOT 120303
HRRLOT

CHICAGO AREA WEATHER ROUNDUP
NATIONAL WEATHER SERVICE CHICAGO/ROMEOVILLE IL
900 PM CST MON DEC 11 2017

NOTE: "FAIR" INDICATES FEW OR NO CLOUDS BELOW 12,000 FEET WITH NO
SIGNIFICANT WEATHER AND/OR OBSTRUCTIONS TO VISIBILITY.

* THESE STATIONS ARE NOT UNDER NWS QUALITY CONTROL. THEY ALSO MAY NOT
  REPORT WEATHER SUCH AS PRECIPITATION OR FOG.

ILZ005-006-012>014-019>023-120400-
NORTHEAST ILLINOIS

CITY           SKY/WX    TMP DP  RH WIND       PRES   REMARKS
OHARE          CLOUDY    32  27  81 NW21G26   29.82R WCI  20
MIDWAY         CLOUDY    33  29  85 NW22      29.82R WCI  21
AURORA         CLOUDY    32  29  88 NW17      29.86R FOG     WCI  21
LANSING*       CLOUDY    33  31  94 NW12      29.80R WCI  24
JOLIET*        CLOUDY    34  31  90 NW7       29.85R WCI  28
WAUKEGAN       CLOUDY    31  25  78 N16G25    29.83R WCI  20
DUPAGE AIRPORT CLOUDY    32  29  88 NW18      29.84R FOG     WCI  20
WHEELING       CLOUDY    33  28  81 NW14G21   29.85R WCI  23
KANKAKEE*      CLOUDY    33  31  92 NW12      29.82R WCI  24
MORRIS*        CLOUDY    33  30  90 NW14      29.85R WCI  23
LEWIS AIRPORT* CLOUDY    32  29  90 N16G23    29.83R WCI  21
NORTHERLY ISL    N/A     33  28  82 NW9         N/A  WCI  25
$$

WIZ051-052-058>065-066-070>072-120400-
SOUTHEAST WISCONSIN

CITY           SKY/WX    TMP DP  RH WIND       PRES   REMARKS
MILWAUKEE      CLOUDY    31  24  75 NW16G35   29.85R WCI  20
KENOSHA*       CLOUDY    31  24  75 N14G26    29.84R WCI  21
RACINE*        CLOUDY    31  24  75 N15G28    29.86R WCI  20
WAUKESHA       CLOUDY    27  21  80 NW16G25   29.86R WCI  14
WEST BEND      CLOUDY    30  23  74 NW13G22   29.85R WCI  20
$$

INZ001>003-010>013-019-020-120400-
NORTHWEST INDIANA

CITY           SKY/WX    TMP DP  RH WIND       PRES   REMARKS
GARY*          CLOUDY    36  30  80 NW14      29.80R
MICHIGAN CITY* NOT AVBL
RENSSELAER*    NOT AVBL
VALPARAISO     CLOUDY    35  33  92 NW10      29.75R FOG     WCI  27
$$

LMZ740>746-120400-
SOUTHERN LAKE MICHIGAN

STATION/POSITION TIME  SKY/WX   TEMP WIND        PRES    VSBY
                                AIR  DIR/SP/G
                 (UTC)          (F)  (DEG/KT/KT) (MB)    (MI)
HARRISON CRIB    0240            34  320/ 23/ 25   N/A
BURNHAM HARBOR   0300            33  300/ 14/ 17   N/A
CALUMET HARBOR   0230            33  300/ 11/ 16 1008.1R
BURNS HARBOR     0240            36  330/ 18/ 22 1008.1S
MICHIGAN CITY    0240            36  320/ 22/ 25   N/A
$$

ABBREVIATIONS USED IN REMARKS
   TC - TEMPERATURE IN CELSIUS
  WCI - WIND CHILL INDEX
   HX - HEAT INDEX
  VSB - VISIBILITY
$$



USA.gov is the U.S. government's official web portal to all federal, state and local government web resources and services.